Date String (YYYY-MM-DD hh:mm:ss) UTC,Instrument flags,absolute air pressure of the measurement (hPa),sample flow rate (lpm),inlet stack bypass flow (lpm),air temperature of the measurement (°C),ambient temperature measured by the external sensor (°C),aerosol sample conditioner tube jacket temperature (°C),OPC LED temperature (°C),internal box temperature (°C),relative humidity of the measurement (%),span deviation,mass concentration of particles derived from Lorenz-Mie calculation of OPC scattering (μg/m³),mass concentration of particles derived from Lorenz-Mie calculation of OPC scattering (μg/m³),mass concentration of particles derived from Lorenz-Mie calculation of OPC scattering (μg/m³)
DateTimeUTC,F1_M11,P_M11,Q1_M11,Q2_M11,T1_M11,T2_M11,T3_M11,T4_M11,T5_M11,U1_M11,ZSPAN_M11,X0_M11,X2_M11,X1_M11
2023-11-27 13:00:00,SystemResetWarning,0833.7,4.98,000.00,018.8,017.9,000.0,027.3,020.0,12.1,0000.0,0005.96,0003.71,0003.54
2023-11-27 13:01:00,SystemResetWarning,0833.7,5.00,000.00,018.8,017.9,000.0,027.3,020.0,12.1,0000.0,0005.99,0003.73,0003.55
2023-11-27 13:02:00,SystemResetWarning,0833.7,5.01,000.00,018.8,017.8,000.0,027.3,020.0,12.1,0000.0,0005.91,0003.73,0003.56
2023-11-27 13:03:00,SystemResetWarning,0833.7,5.01,000.00,018.8,017.8,000.0,027.2,020.1,12.1,0000.0,0005.87,0003.74,0003.58
2023-11-27 13:04:00,SystemResetWarning,0833.7,5.00,000.00,018.8,018.2,000.0,027.2,020.5,12.0,0000.0,0005.88,0003.74,0003.58
2023-11-27 13:05:00,SystemResetWarning,0833.7,5.01,000.00,019.0,019.0,000.0,027.2,020.9,11.9,0000.0,0005.66,0003.76,0003.59
2023-11-27 13:06:00,SystemResetWarning,0833.7,4.99,000.00,019.1,019.1,000.0,027.2,020.7,11.9,0000.0,0005.56,0003.76,0003.58
2023-11-27 13:07:00,SystemResetWarning,0833.7,4.98,000.00,019.0,019.0,000.0,027.2,020.4,11.9,0000.0,0005.68,0003.78,0003.60
2023-11-27 13:08:00,SystemResetWarning,0833.7,5.00,000.00,019.0,018.8,000.0,027.2,020.2,12.0,0000.0,0005.80,0003.81,0003.61
2023-11-27 13:09:00,SystemResetWarning,0833.7,5.00,000.00,018.9,018.6,000.0,027.2,020.0,12.0,0000.0,0005.71,0003.80,0003.61
2023-11-27 13:10:00,SystemResetWarning,0833.8,5.00,000.00,018.9,018.4,000.0,027.2,020.0,12.1,0000.0,0005.60,0003.80,0003.61
2023-11-27 13:11:00,SystemResetWarning,0833.8,4.99,000.00,018.9,018.3,000.0,027.2,020.0,12.2,0000.0,0005.43,0003.78,0003.61
2023-11-27 13:12:00,SystemResetWarning,0833.8,5.00,000.00,018.8,018.1,000.0,027.3,020.0,12.2,0000.0,0006.56,0003.77,0003.60
2023-11-27 13:13:00,SystemResetWarning,0833.8,5.00,000.00,018.8,018.0,000.0,027.3,020.0,12.2,0000.0,0007.29,0003.79,0003.60
2023-11-27 13:14:00,SystemResetWarning,0833.8,5.00,000.00,018.8,018.0,000.0,027.3,020.0,12.2,0000.0,0007.33,0003.80,0003.61
2023-11-27 13:15:00,SystemResetWarning,0833.8,5.00,000.00,018.8,017.9,000.0,027.3,020.0,12.2,0000.0,0007.41,0003.85,0003.63
2023-11-27 13:16:00,SystemResetWarning,0833.8,5.00,000.00,018.8,017.8,000.0,027.2,020.0,12.2,0000.0,0007.37,0003.87,0003.66
2023-11-27 13:17:00,SystemResetWarning,0833.8,5.00,000.00,018.8,017.8,000.0,027.3,020.0,12.2,0000.0,0007.41,0003.91,0003.68
2023-11-27 13:18:00,SystemResetWarning,0833.8,5.00,000.00,018.8,017.7,000.0,027.2,020.1,12.2,0000.0,0007.40,0003.92,0003.68
2023-11-27 13:19:00,SystemResetWarning,0833.9,5.01,000.00,018.8,018.2,000.0,027.2,020.5,12.1,0000.0,0007.39,0003.94,0003.72
2023-11-27 13:20:00,SystemResetWarning,0834.0,5.00,000.00,019.0,019.0,000.0,027.2,020.9,11.9,0000.0,0007.50,0004.00,0003.76
2023-11-27 13:21:00,SystemResetWarning,0833.9,4.98,000.00,019.0,019.1,000.0,027.2,020.6,11.8,0000.0,0007.57,0004.04,0003.79
2023-11-27 13:22:00,SystemResetWarning,0833.9,4.99,000.00,019.0,018.9,000.0,027.2,020.3,11.7,0000.0,0007.82,0004.07,0003.82
2023-11-27 13:23:00,SystemResetWarning,0833.9,5.00,000.00,019.0,018.7,000.0,027.2,020.2,11.7,0000.0,0007.60,0004.08,0003.85
2023-11-27 13:24:00,SystemResetWarning,0833.9,5.00,000.00,018.9,018.6,000.0,027.2,020.1,11.7,0000.0,0007.19,0004.09,0003.87
2023-11-27 13:25:00,SystemResetWarning,0834.0,5.01,000.00,018.9,018.5,000.0,027.2,020.1,11.8,0000.0,0007.21,0004.10,0003.89
2023-11-27 13:26:00,SystemResetWarning,0834.0,5.00,000.00,018.9,018.3,000.0,027.2,020.0,11.8,0000.0,0007.09,0004.08,0003.89
2023-11-27 13:27:00,SystemResetWarning,0834.0,5.00,000.00,018.9,018.3,000.0,027.2,020.0,11.8,0000.0,0006.98,0004.06,0003.88
2023-11-27 13:28:00,SystemResetWarning,0834.1,4.99,000.00,018.8,018.2,000.0,027.2,020.0,11.8,0000.0,0006.83,0004.02,0003.87
2023-11-27 13:29:00,SystemResetWarning,0834.0,5.00,000.00,018.8,018.1,000.0,027.2,020.0,11.8,0000.0,0006.80,0004.01,0003.87
2023-11-27 13:30:00,SystemResetWarning,0834.0,5.00,000.00,018.8,018.0,000.0,027.2,020.0,11.8,0000.0,0006.75,0004.00,0003.86
2023-11-27 13:31:00,SystemResetWarning,0834.1,5.00,000.00,018.8,018.0,000.0,027.2,020.0,11.8,0000.0,0007.11,0003.96,0003.83
2023-11-27 13:32:00,SystemResetWarning,0834.1,5.00,000.00,018.8,017.9,000.0,027.2,020.0,11.8,0000.0,0007.42,0003.94,0003.82
2023-11-27 13:33:00,SystemResetWarning,0834.1,5.00,000.00,018.8,017.9,000.0,027.2,020.0,11.8,0000.0,0007.25,0003.94,0003.81
2023-11-27 13:34:00,SystemResetWarning,0834.1,5.00,000.00,018.8,017.9,000.0,027.3,020.0,11.8,0000.0,0006.43,0003.93,0003.80
2023-11-27 13:35:00,SystemResetWarning,0834.0,5.00,000.00,018.8,017.8,000.0,027.3,020.0,11.8,0000.0,0006.57,0003.94,0003.78
2023-11-27 13:36:00,SystemResetWarning,0834.0,5.00,000.00,018.8,017.8,000.0,027.3,020.0,11.9,0000.0,0006.59,0003.93,0003.77
2023-11-27 13:37:00,SystemResetWarning,0834.0,5.00,000.00,018.8,017.8,000.0,027.2,020.0,11.9,0000.0,0006.55,0003.91,0003.75
2023-11-27 13:38:00,SystemResetWarning,0834.0,5.00,000.00,018.9,018.2,000.0,027.2,020.5,11.8,0000.0,0006.63,0003.90,0003.73
2023-11-27 13:39:00,SystemResetWarning,0834.0,5.00,000.00,019.0,019.0,000.0,027.2,020.9,11.8,0000.0,0006.64,0003.90,0003.73
2023-11-27 13:40:00,SystemResetWarning,0833.9,4.99,000.00,019.1,019.2,000.0,027.3,020.8,11.7,0000.0,0006.58,0003.88,0003.72
2023-11-27 13:41:00,SystemResetWarning,0834.0,4.99,000.00,019.1,019.0,000.0,027.3,020.4,11.7,0000.0,0006.54,0003.87,0003.71
2023-11-27 13:42:00,SystemResetWarning,0834.0,5.00,000.00,019.0,018.9,000.0,027.3,020.3,11.7,0000.0,0005.95,0003.86,0003.70
2023-11-27 13:43:00,SystemResetWarning,0833.9,5.00,000.00,019.0,018.7,000.0,027.3,020.2,11.8,0000.0,0005.49,0003.85,0003.69
2023-11-27 13:44:00,SystemResetWarning,0833.9,5.01,000.00,019.0,018.5,000.0,027.3,020.1,11.8,0000.0,0005.43,0003.83,0003.67
2023-11-27 13:45:00,SystemResetWarning,0833.9,5.01,000.00,018.9,018.4,000.0,027.2,020.0,11.9,0000.0,0005.29,0003.80,0003.65
2023-11-27 13:46:00,SystemResetWarning,0834.0,5.01,000.00,018.9,018.3,000.0,027.3,020.0,11.9,0000.0,0005.24,0003.80,0003.64
2023-11-27 13:47:00,SystemResetWarning,0834.0,4.98,000.00,018.9,018.2,000.0,027.3,020.0,11.9,0000.0,0005.31,0003.79,0003.64
2023-11-27 13:48:00,SystemResetWarning,0834.0,5.00,000.00,018.8,018.1,000.0,027.3,020.0,11.9,0000.0,0005.28,0003.78,0003.64
2023-11-27 13:49:00,SystemResetWarning,0834.1,5.00,000.00,018.8,018.0,000.0,027.3,020.0,12.0,0000.0,0005.16,0003.78,0003.64
2023-11-27 13:50:00,SystemResetWarning,0834.0,5.00,000.00,018.8,017.9,000.0,027.3,020.0,12.0,0000.0,0005.15,0003.77,0003.63
2023-11-27 13:51:00,SystemResetWarning,0834.0,5.00,000.00,018.8,017.8,000.0,027.3,020.0,12.0,0000.0,0005.18,0003.77,0003.61
2023-11-27 13:52:00,SystemResetWarning,0834.0,5.00,000.00,018.8,017.8,000.0,027.3,020.0,12.0,0000.0,0005.13,0003.75,0003.60
2023-11-27 13:53:00,SystemResetWarning,0834.0,5.00,000.00,018.8,017.8,000.0,027.2,020.2,12.0,0000.0,0005.08,0003.73,0003.58
2023-11-27 13:54:00,SystemResetWarning,0834.0,5.01,000.00,018.9,018.5,000.0,027.2,020.7,11.9,0000.0,0005.09,0003.73,0003.58
2023-11-27 13:55:00,SystemResetWarning,0834.1,5.00,000.00,019.1,019.1,000.0,027.2,020.9,11.8,0000.0,0005.12,0003.75,0003.59
2023-11-27 13:56:00,SystemResetWarning,0834.0,4.99,000.00,019.1,019.1,000.0,027.2,020.5,11.8,0000.0,0005.17,0003.77,0003.60
2023-11-27 13:57:00,SystemResetWarning,0834.0,5.00,000.00,019.0,018.9,000.0,027.2,020.2,11.9,0000.0,0005.09,0003.76,0003.60
2023-11-27 13:58:00,SystemResetWarning,0833.9,5.00,000.00,019.0,018.7,000.0,027.2,020.0,11.9,0000.0,0005.01,0003.76,0003.61
2023-11-27 13:59:00,SystemResetWarning,0834.0,5.00,000.00,018.9,018.5,000.0,027.2,020.0,11.9,0000.0,0005.70,0003.77,0003.62
